STARLINK-36174, 67166

Orbit data source: Space-Track

STARLINK-36174, 67166 is a payload satellite owned by SpaceX/Seattle (US) in LEO that was launched on Wed, 17 Dec 2025 UTC via an FALCON 9 launch vehicle from the Air Force Eastern Test Range (AFETR). Payload-class satellites include a variety of spacecraft equipped with specific instruments for various scientific and technological missions. These include communications satellites like Starlink; space stations such as the ISS; scientific satellites like the Hubble; Earth observation satellites from companies like Planet Labs, Umbra, and HawkEye 360; GPS; miniature CubeSats for education and research; and military/defense satellites.

Loading next visibility...
Identifier
67166, 2025-303D
Orbit
LEO
Country
Flag of USUS
Related business
Manufacturer
SpaceX/Seattle
Mission
Operational Commercial Communications
Bus & Motor
STARLINK V2MO, Unknown motor
Mass
575 kg wet, ~530 kg dry
Launch date (UTC)
2025-12-17 (6 months ago)
Launch vehicle
FALCON 9
Launch site
Air Force Eastern Test Range (AFETR)
Object type
Payload
Rocket body
Debris
Shape & HBR
Box + 2 Pan, 17.7 m
Radar Cross Section
36.964 m², Large (>1 m²)

Expand to show TLE details & history
Last TLE update: 2 days ago

TLE from 2 days ago
0 STARLINK-36174
1 67166U 25303D   26170.14805002  .00025179  00000-0  92081-3 0  9992
2 67166  43.0007  97.5847 0001576 266.3481  93.7190 15.27600683 28255
Epoch: 2026-06-19T03:33Z
TLE epoch observation values (Epoch: 2026-06-19T03:33:11.521Z)
Latitude
-0.00006°
Longitude
136.90544°
Altitude
482.833 km
Speed
7.626 km/s
True Right ascension
06h 30m 20s
True Declination
0° 00' 00"
Sunlit
Object was in daylight at epoch
Visualization orbit readout
Latitude
Unknown
Longitude
Unknown
Altitude
Unknown
Speed
Unknown
Apparent Right ascension
Unknown
Apparent Declination
Unknown
Sunlit
N/A
Visualization observer readout
Local Sidereal Time
08:33:03
Azimuth
Unknown
Elevation
Unknown
Doppler factor
Unknown
Orbital elements
Apogee altitude
486.014 km
Perigee altitude
483.851 km
Semi-major axis
6,863.069 km
Eccentricity
0.00016
Inclination
43.0007°
RAAN
97.5847°
Arg. of periapsis
266.3481°
True anomaly
93.73702°
Mean anomaly
93.719°
Eccentric anomaly
93.72801°
Mean motion
3.81738 °/min
Orbital period
94.31 mins
BSTAR
0.00092081
Loading maneuver chart data...
Computing Atmospheric mass density...
Loading historical data...
Loading historical data...
Loading historical data...
Loading historical data...
Loading historical data...
Loading historical data...
Loading historical data...

Documentation

Showing up to 5 results
|